www.pogodaiklimat.ru

Погода и климат >> Архив погоды >> Украина >> Свитязь


ПОГОДА в Свитязи

  • Прогноз погоды в Свитязи
  • Монитор погоды в Свитязи

АРХИВ ПОГОДЫ в Свитязи

Время (UTC), дата Ветер
(напр.,м/с)
 
Видим.   Явления Облачность Т
(С)
Тd
(С)
f
(%)
Тe
(С)
Тes
(С)
Комфортность P
(гПа)
Po
(гПа)
Тmin
(С)
Tmax
(С)
R
(мм)
R24
(мм)
S
(см)
03 10.06 СВ 1 11 км ясно +13.2 +11.3 88 +13 +14 1023.0 1002.4
06 10.06 В 2 22 км ясно +20.5 +13.0 62 +23 +30 комфорт 1023.0 1002.9 +12.2
09 10.06 СВ 1 24 км 8/8 600 м
[Cu hum]
+25.5 +16.9 59 +29 +29 душно 1021.0 1001.3
12 10.06 СВ 2 24 км 8/8 600 м
[Cu med, cong]
+27.7 +17.2 53 +32 +32 очень
душно
1019.0 999.5
15 10.06 ЮВ 1 21 км 3/3 600 м
[Cu hum]
+29.6 +18.4 51 +34 +39 очень
душно
1018.0 998.7
18 10.06 ЮВ 1 17 км ясно +26.7 +17.2 56 +31 +31 душно 1017.0 997.5 +31.8
21 10.06 ЮВ 1 14 км ясно +20.9 +17.5 81 +26 +26 душно 1017.0 997.1
00 11.06 ЮВ 1 11 км ясно +18.7 +16.8 89 +21 +21 комфорт 1017.0 996.9
03 11.06 ЮВ 1 11 км ясно +18.2 +16.5 90 +20 +20 1017.0 996.9
06 11.06 ЮВ 1 15 км ясно +24.6 +18.8 70 +29 +37 душно 1018.0 998.3 +17.8
09 11.06 ЮВ 3 21 км 3/3 600 м
[Cu hum]
+29.3 +17.8 50 +34 +43 очень
душно
1017.0 997.6
12 11.06 ЮВ 3 24 км 4/4 600 м
[Cu med, cong]
+31.5 +16.2 40 +34 +43 душно 1016.0 996.8
15 11.06 ЮВ 2 26 км 3/3 600 м
[Cu med, cong]
+31.1 +12.4 32 +32 +36 жарко 1016.0 996.7
18 11.06 ЮВ 1 20 км ясно +27.4 +17.5 55 +32 +32 очень
душно
1016.0 996.5 +32.2
21 11.06 ЮВ 1 10 км ясно +21.8 +16.7 73 +26 +26 душно 1016.0 996.2
00 12.06 В 1 14 км ясно +18.9 +16.1 84 +21 +21 комфорт 1017.0 996.9
03 12.06 ЮВ 1 10 км ясно +19.1 +16.0 82 +22 +22 комфорт 1018.0 997.9
06 12.06 В 1 19 км ясно +25.0 +18.2 66 +29 +37 душно 1016.0 996.4 +18.5
09 12.06 ЮВ 3 22 км 3/3 600 м
[Cu hum]
+30.6 +16.9 44 +34 +44 очень
душно
1015.0 995.8
12 12.06 ЮВ 2 24 км 4/4 600 м
[Cu med, cong]
+32.2 +16.5 39 +35 +46 очень
душно
1014.0 994.9
15 12.06 ЮВ 2 23 км 3/3 600 м
[Cu hum]
+31.8 +15.3 37 +34 +38 душно 1014.0 994.8
18 12.06 ЮВ 1 20 км ясно +27.7 +17.2 53 +32 +32 очень
душно
1014.0 994.6 +33.3
21 12.06 ЮВ 1 18 км ясно +22.5 +17.2 72 +27 +27 душно 1015.0 995.2
00 13.06 В 1 16 км ясно +19.5 +16.0 80 +23 +23 комфорт 1017.2 997.3
03 13.06 В 2 13 км ясно +18.3 +15.5 84 +19 +20 1016.0 995.9
06 13.06 ЮВ 1 18 км ясно +24.4 +18.8 71 +29 +37 душно 1016.0 996.4 +17.8
09 13.06 ЮВ 3 24 км ясно +30.8 +17.8 46 +35 +48 очень
душно
1016.0 996.8
12 13.06 ЮВ 3 26 км 4/4 600 м
[Cu hum]
+32.2 +16.5 39 +35 +44 очень
душно
1015.0 995.9
15 13.06 ЮВ 3 26 км 3/3 600 м
[Cu hum]
+31.6 +15.9 39 +34 +38 душно 1014.0 994.8
18 13.06 ЮВ 1 21 км ясно +27.6 +18.3 57 +32 +32 очень
душно
1015.0 995.6 +32.8
21 13.06 ЮВ 1 18 км ясно +23.7 +16.5 64 +27 +27 жарко 1016.0 996.3
00 14.06 ЮВ 2 16 км ясно +20.6 +16.0 75 +24 +24 комфорт 1016.0 996.1
03 14.06 В 1 11 км ясно +18.4 +16.0 86 +20 +20 1017.0 996.9
06 14.06 СВ 1 15 км 6/0
[Ci fib]
+23.6 +17.6 69 +28 +31 душно 1018.0 998.3 +18.0
09 14.06 В 3 18 км 3/0
[Ac und]
+29.1 +16.3 46 +32 +42 душно 1017.0 997.6
12 14.06 Ю 1 17 км 6/6 600 м
[Cb calv]
+32.3 +18.5 44 +37 +44 очень
душно
1017.0 997.8
15 14.06 С 1 15 км {гроза, ливн. осадки} 4/4 600 м
[Cb cap]
+29.2 +20.9 61 +36 +41 очень
душно
1017.0 997.7
18 14.06 Ю 1 15 км {гроза, ливн. осадки} 10/3 600 м
[Sc Ci fib]
+25.0 +15.9 57 +28 +28 жарко 1018.0 998.3 +32.5 0.1
21 14.06 В 1 13 км ясно +20.0 +17.4 85 +24 +24 комфорт 1018.0 998.0
00 15.06 штиль 0 8000 м дымка 10/0
[Ci fib]
+18.2 +17.0 93 +19 +19 1018.0 997.9
03 15.06 В 1 6000 м дымка 10/0
[Ci fib]
+16.9 +16.1 95 +18 +18 1018.0 997.8
06 15.06 ЮВ 1 17 км 10/0
[Ci fib]
+24.2 +17.7 67 +28 +28 душно 1017.0 997.3 +16.3
09 15.06 В 1 24 км 3/0
[Ci fib]
+29.8 +17.3 47 +34 +47 очень
душно
1016.0 996.7
12 15.06 ЮВ 2 26 км 3/3 600 м
[Cu med, cong]
+33.1 +18.4 42 +38 +49 очень
душно
1014.0 994.9
15 15.06 ЮВ 1 25 км 3/3 600 м
[Cu med, cong]
+32.4 +18.2 43 +37 +42 очень
душно
1013.0 993.9
18 15.06 ЮВ 1 20 км 10/0
[Ci fib]
+29.1 +19.7 57 +35 +35 очень
душно
1013.0 993.7 +33.4
21 15.06 ЮВ 1 10 км ясно +23.3 +19.0 77 +30 +30 очень
душно
1013.0 993.3
00 16.06 В 1 13 км ясно +20.1 +17.5 85 +24 +24 комфорт 1013.0 993.1
03 16.06 ЮВ 2 11 км 10/0
[Ci fib]
+19.0 +17.5 91 +21 +21 комфорт 1012.0 992.1
06 16.06 Ю 1 14 км 10/0
[Cs]
+23.5 +18.6 74 +28 +28 душно 1012.0 992.4 +18.4
09 16.06 З 1 18 км 10/0
[Cs]
+28.8 +20.5 61 +36 +36 очень
душно
1012.0 992.7
12 16.06 З 4 18 км 10/6 600 м
[Cu med, cong Cs]
+30.2 +22.1 62 +39 +39 очень
душно
1012.0 992.8
15 16.06 З 6 19 км 10/4 600 м
[Cb calv Ci fib]
+30.4 +20.0 54 +37 +37 очень
душно
1012.0 992.8
18 16.06 З 3 17 км 10/6 600 м
[Cb cap As trans Ci fib]
+27.1 +18.9 61 +32 +32 очень
душно
1014.0 994.6 +31.8
21 16.06 З 3 15 км 10/0
[As trans]
+24.0 +18.2 70 +28 +28 душно 1016.0 996.3
00 17.06 СЗ 3 10 км 10 баллов +20.6 +17.4 82 +25 +25 комфорт 1016.0 996.1

 

Местоположение метеостанции Свитязь (Волынская область, Украина): широта 51.45 долгота 24.57 высота над уровнем моря 171 м.

В архиве по умолчанию представлена погода в Свитязи за последнюю неделю. Архивные данные за месяц целиком и за предыдущие месяцы, начиная с января 2011 года, Вы можете получить, выбрав интересующий диапазон дат из раскрывающегося списка и нажав кнопку "Ввод!".


*Определитесь, кто Вы:
робот инопланетянин человек

Внимание! Время в таблицах - всемирное. Для получения местного времени необходимо прибавить поправку, которая равна 2 ч.

Смотрите также архив погоды в соседних городах и на ближайших метеорологических станциях:

Погода в Ковеле (Волынская область, Украина) (27 км)
Погода в Любешове (Волынская область, Украина) (54 км)
Погода в Маневичах (Волынская область, Украина) (69 км)
Погода в Владимире-Волынском (Волынская область, Украина) (71 км)
Погода в Влодаве (Польша) (73 км)
Погода в Дрогичине (Брестская область, Беларусь) (91 км)
Погода в Тересполе (Польша) (95 км)
Погода в Бресте (Брестская область, Беларусь) (96 км)
Погода в Луцке (Волынская область, Украина) (106 км)
Погода в Пружанах (Брестская область, Беларусь) (122 км)

Пояснения к столбцам:

Ветер - указаны скорость ветра в м/с - средняя за 10 мин, порывы в срок и между сроками (в фигурных скобках) и направление, откуда дует ветер: С - северный, СВ - северо-восточный, В - восточный, ЮВ - юго-восточный, Ю - южный, ЮЗ - юго-западный, З - западный, СЗ - северо-западный.
Видимость - горизонтальная дальность видимости в метрах или километрах. При видимости от 1 до 10 км при отсутствии осадков обычно наблюдается дымка, при ухудшении видимости до 1 км и менее - туман. В сухую погоду видимость может ухудшаться дымом, пылью или мглою.
Явления - указаны атмосферные явления, наблюдавшиеся в срок или в последний час перед сроком; фигурными скобками обозначены явления, наблюдавшиеся между сроками (за 1-3 часа до срока); квадратными скобками обозначены град или гололедные отложения с указанием их диаметра в мм.
Облачность - указаны через наклонную черту общая и нижняя облачность в баллах и высота нижней границы облаков в метрах; квадратными скобками обозначены формы облаков: Ci - перистые, Cs - перисто-слоистые, Cc - перисто-кучевые, Ac - высококучевые, As - высокослоистые, Sc - слоисто-кучевые, Ns - слоисто-дождевые, Cu - кучевые, Cb - кучево-дождевые. Подробнее классификацию облаков см. в Атласе облаков (PDF).
T - Температура воздуха - температура, измеренная на высоте 2 м над землей.
Td - Температура точки росы - температура, при понижении до которой содержащийся в воздухе водяной пар достигнет насыщения.
f - Относительная влажность воздуха - влажноcть воздуха, измеренная на высоте 2 м над землей.
Te - Эффективная температура - температура, которую ощущает одетый по сезону человек в тени. Характеристика душности погоды. При расчете учитывается влияние влажности воздуха и скорости ветра на теплоощущения человека.
Tes - Эффективная температура на солнце - температура, которую ощущает человек, с поправкой на солнечный нагрев. Характеристика знойности погоды. Зависит от высоты солнца над горизонтом, облачности и скорости ветра. Ночью, в пасмурную погоду, а также при ветре 12 м/с и более поправка равна нулю.
P - Атмосферное давление - приведенное к уровню моря атмосферное давление.
Po - Атмосферное давление - измеренное на уровне метеостанции атмосферное давление.
Tmin - Минимальная температура - минимум температуры воздуха на высоте 2 м над землей.
Tmax - Максимальная температура - максимум температуры воздуха на высоте 2 м над землей.
R - Количество осадков - Количество выпавших осадков за период времени, мм. При наведении курсора мыши на число - период времени, за который выпало указанное количество осадков.
R24 - Количество осадков - Количество выпавших осадков за 24 часа, мм.
S - Снежный покров - Высота снежного покрова, см. При наведении курсора мыши на число - состояние снежного покрова и степень покрытия местности в баллах.